Theta_e
314 314 314 311 309 308 306 306 305 305 305 304 303 304 304 304 305 305 306 306 307 307 308 311 312 313 316 324 317 321 328 324 329 334 347 350 351 351 355 352 351 356 352 349 349 347 343
312 312 311 310 308 306 305 305 304 305 304 304 304 304 304 304 305 306 306 306 306 307 308 310 312 313 321 313 318 320 326 325 328 336 345 350 352 349 356 353 357 352 352 350 349 346 349
314 313 312 309 308 306 305 305 304 303 304 304 304 304 304 305 306 306 307 307 307 307 308 310 313 315 323 315 328 333 328 326 325 331 348 349 350 352 355 357 348 351 351 351 349 350 351
314 314 312 310 308 306 306 304 304 303 304 304 304 304 304 305 306 306 307 307 307 308 312 314 313 321 316 319 321 320 329 335 328 345 345 352 349 351 353 350 353 355 354 356 351 350 350
313 313 313 310 308 306 305 305 304 304 304 304 304 304 304 305 305 307 308 308 312 317 315 314 314 323 320 322 323 321 329 340 342 348 348 349 350 349 350 354 353 354 356 356 355 349 348
313 312 313 310 309 306 305 305 304 304 304 304 304 304 305 305 306 307 308 308 320 317 318 317 320 321 320 323 321 322 324 339 342 343 344 346 346 348 343 353 360 357 356 353 354 350 348
312 312 312 311 308 307 305 305 304 304 304 304 304 305 305 305 306 307 309 312 319 318 322 315 316 324 328 325 323 323 324 339 341 343 345 347 352 355 351 352 351 353 350 350 352 352 351
311 311 311 311 310 307 305 305 304 304 304 304 305 305 306 306 306 308 309 311 321 320 321 322 320 321 324 325 325 319 323 332 343 346 343 344 356 350 345 347 353 353 351 353 353 353 353
311 311 311 311 310 308 306 305 305 304 304 305 305 306 306 307 307 309 309 310 314 313 320 321 323 320 320 323 325 322 317 321 343 345 345 345 344 346 349 348 349 351 350 354 355 357 355
311 310 311 310 310 309 307 305 305 305 304 305 306 306 306 308 311 313 314 321 314 317 318 321 324 325 323 321 321 323 319 324 341 345 344 343 343 348 347 349 346 348 349 352 358 359 361
310 310 310 310 310 309 307 305 305 304 304 305 306 306 307 307 310 310 319 317 315 318 323 325 324 327 321 321 321 322 320 337 341 345 341 344 345 342 342 344 345 347 348 352 354 351 355
310 310 310 310 310 309 308 305 304 304 304 306 306 307 307 309 313 312 317 319 318 320 326 326 326 323 324 321 322 322 321 329 339 341 341 341 340 341 342 342 345 347 352 354 351 348 353
309 309 309 310 310 310 308 306 304 304 305 307 308 308 309 308 312 318 315 313 318 322 324 327 326 322 322 322 321 321 323 320 320 343 344 341 340 339 344 344 345 349 350 356 356 357 353
307 308 309 309 310 309 308 306 304 304 305 307 309 310 312 311 310 311 319 314 323 324 324 324 324 321 322 321 321 322 322 320 317 334 335 339 343 337 337 342 346 349 350 358 362 359 357
306 306 308 309 309 309 308 306 304 304 306 308 310 313 317 316 311 312 313 317 320 323 325 323 323 322 323 322 323 321 320 319 318 328 334 334 336 335 336 336 344 349 346 344 348 347 357
308 307 307 308 310 309 309 306 304 304 307 308 310 313 316 321 316 317 315 318 319 323 322 322 325 324 324 321 321 321 320 320 318 325 326 328 333 332 333 333 337 342 343 346 347 354 356
307 307 306 307 310 311 309 308 304 304 307 309 314 316 321 322 319 313 316 316 321 321 321 322 322 324 324 326 322 321 322 322 320 320 327 326 327 329 332 335 334 338 344 344 344 345 349
307 307 307 307 309 310 309 308 305 304 306 309 309 319 322 323 316 312 315 318 319 320 320 320 320 323 323 323 324 326 323 322 320 322 323 324 327 328 328 329 333 332 339 341 342 346 345
306 307 308 307 307 309 310 308 305 304 306 308 308 313 323 321 317 316 315 318 319 320 320 320 322 320 321 323 325 325 326 327 323 321 319 321 321 326 325 322 327 334 334 337 332 336 342
306 307 307 307 307 307 310 308 305 304 307 309 310 321 315 314 313 318 321 320 321 320 320 320 320 320 320 321 323 325 326 328 325 321 336 326 318 324 326 323 322 332 332 332 330 329 338
306 306 307 307 306 307 310 307 305 304 311 311 312 319 315 316 317 315 317 320 322 322 320 319 321 321 320 323 323 327 325 324 325 327 323 317 319 318 319 321 322 323 323 323 327 328 338
306 306 307 307 307 308 310 307 305 304 311 315 314 312 311 313 314 314 315 318 320 321 322 321 322 321 320 322 324 324 322 322 323 321 323 317 319 322 323 323 323 324 323 323 322 335 343
305 306 306 307 307 308 310 308 306 304 307 310 314 316 311 313 314 315 314 318 320 320 322 321 321 321 320 320 320 318 318 318 320 322 322 321 320 319 322 323 324 322 323 325 323 323 341
304 305 305 307 307 307 310 309 306 305 305 307 311 313 311 315 315 317 318 319 319 318 321 320 320 319 320 316 317 318 318 319 319 319 318 321 320 319 321 323 325 321 322 324 324 324 340
304 304 305 306 307 307 308 309 306 304 305 306 309 312 310 314 315 317 318 318 316 316 317 318 317 318 316 315 316 318 320 321 325 324 324 319 320 323 322 322 322 324 324 325 324 324 335
303 303 304 305 306 307 308 309 306 305 304 307 313 314 311 313 314 316 317 315 317 316 316 317 315 313 315 314 315 322 323 325 326 325 323 317 318 322 324 332 329 326 327 327 324 333 344
304 303 304 305 306 307 308 309 306 305 304 306 312 313 312 312 312 314 315 315 315 315 316 315 315 315 313 313 316 317 317 319 320 324 327 323 321 323 324 327 326 326 330 329 337 340 342
304 303 304 304 305 307 307 308 305 306 305 306 311 312 311 309 309 313 313 314 314 312 314 313 315 314 316 316 316 315 316 316 317 318 321 323 324 324 323 328 327 327 332 333 341 339 342
303 303 304 304 304 306 307 308 306 305 305 307 311 311 311 309 309 313 313 314 314 314 310 309 313 313 313 314 315 316 321 319 316 318 317 319 322 322 323 323 322 324 330 337 334 336 337
Wind_Speed
18 17 16 17 18 18 18 18 18 18 18 18 18 19 20 19 18 17 16 14 14 14 13 11 10 8 2 2 9 6 6 22 22 23 19 9 6 6 7 2 5 15 14 11 7 6 5
18 18 17 18 18 19 19 19 19 19 19 19 20 20 21 20 19 18 17 16 15 15 14 11 7 5 2 3 5 11 7 21 20 23 15 12 9 10 4 7 7 7 10 5 7 13 11
18 19 19 19 19 19 19 19 19 19 19 19 21 21 21 20 20 19 18 17 16 15 14 10 5 1 0 13 1 5 14 18 21 24 8 18 19 8 7 7 8 3 5 2 7 5 5
18 19 21 20 19 20 21 21 20 20 20 20 22 21 21 21 22 21 19 17 17 14 11 6 3 3 7 9 17 20 12 9 16 15 17 15 11 5 4 2 4 1 4 3 4 8 3
19 19 21 22 20 21 21 21 21 21 22 23 23 22 22 22 22 22 20 18 13 6 4 2 5 3 10 8 9 21 18 10 18 17 20 10 9 6 4 2 3 3 2 2 6 3 1
18 19 19 24 21 22 21 21 22 22 23 24 24 23 23 23 23 23 20 13 6 1 5 4 3 3 7 6 11 19 25 24 7 5 4 8 4 4 2 3 3 4 4 2 4 1 1
17 18 19 22 23 22 21 22 23 24 24 25 25 25 24 24 23 24 21 3 4 2 3 9 8 5 2 8 10 13 19 18 7 3 5 4 4 8 13 10 11 4 5 6 5 5 4
19 19 19 21 25 23 22 22 23 24 25 26 26 26 26 25 24 23 12 2 7 5 6 16 13 13 25 10 5 6 16 7 6 8 3 3 10 13 4 7 6 6 5 5 5 4 4
18 19 19 21 25 26 24 24 24 25 26 27 27 27 28 26 25 11 7 16 12 14 2 8 11 8 8 11 8 9 12 8 6 7 8 8 11 10 12 5 7 5 7 5 6 5 4
19 20 20 21 24 29 26 25 25 26 28 28 28 28 29 29 6 7 8 5 21 3 4 7 5 8 7 8 6 13 20 8 6 12 10 7 8 7 2 7 6 6 13 13 9 4 3
20 20 20 21 25 28 29 28 27 28 30 30 29 29 27 21 15 4 1 16 23 3 4 4 3 2 8 10 4 4 17 5 10 10 6 11 5 5 3 7 5 5 6 4 2 5 5
19 20 22 22 25 28 30 29 29 30 32 32 32 30 28 9 10 16 16 15 4 5 6 3 7 8 6 5 5 4 5 4 6 7 5 12 6 5 8 5 3 5 7 7 5 3 1
18 19 21 23 25 28 30 30 31 32 34 34 34 28 23 13 6 6 22 3 5 3 6 4 6 6 9 5 8 5 2 2 7 7 12 14 8 5 5 1 11 9 5 3 5 4 5
20 20 21 23 25 28 30 31 33 35 37 41 33 23 15 23 16 9 5 5 4 3 7 7 3 5 9 7 7 6 5 6 5 5 4 6 14 6 4 8 11 9 7 6 5 6 3
23 21 20 24 26 27 30 31 34 37 39 39 27 9 8 15 16 9 5 3 7 7 3 8 3 5 3 5 6 9 9 9 10 12 13 5 13 10 4 6 8 3 4 2 4 1 3
25 24 23 23 26 27 30 32 35 39 40 26 19 8 7 2 14 10 4 6 6 2 7 4 2 3 2 5 8 8 8 8 8 12 8 9 9 14 4 2 1 11 8 5 2 4 3
23 26 25 24 25 27 30 33 35 40 41 22 6 3 2 14 17 5 4 7 6 5 6 6 5 2 2 2 6 3 7 7 10 12 16 9 6 12 3 3 8 3 4 5 4 5 5
24 27 27 24 25 28 29 32 34 38 43 20 7 2 11 25 4 2 3 4 4 7 5 7 6 5 5 3 3 5 8 12 11 13 12 11 11 10 8 10 8 7 7 8 5 6 5
24 25 28 26 25 26 29 31 33 33 34 13 3 3 8 19 3 3 5 6 4 7 9 6 4 1 3 1 3 4 5 8 10 13 12 8 5 6 9 6 3 5 7 6 2 5 7
25 24 26 26 26 25 29 31 32 32 31 6 2 3 4 4 2 4 3 6 6 5 9 7 8 1 6 6 1 5 7 5 6 9 17 11 5 11 12 9 3 2 4 7 6 4 5
25 23 25 26 26 24 27 30 32 33 27 5 2 2 1 3 4 6 1 4 11 8 3 6 2 3 5 2 5 5 5 7 6 11 3 6 8 7 8 8 5 6 5 5 7 7 7
24 23 24 25 25 23 24 28 29 32 17 4 2 3 5 3 4 5 2 3 6 7 3 6 5 10 11 5 2 1 4 2 4 9 7 5 2 4 4 3 2 1 3 6 6 3 1
24 24 23 24 24 22 23 25 26 29 20 7 7 6 4 4 5 3 1 6 10 6 3 5 4 4 9 4 3 7 7 7 8 2 4 2 4 3 4 2 4 5 5 3 4 4 6
24 24 23 22 23 20 21 23 23 22 21 9 4 3 3 3 2 3 8 7 11 9 3 4 6 5 3 5 3 2 5 7 6 9 7 4 4 3 3 4 5 8 5 6 5 7 8
23 23 22 21 21 20 19 20 20 19 19 17 5 3 2 2 2 6 13 7 6 9 7 4 6 4 2 8 5 7 6 6 5 7 5 2 4 3 3 4 5 7 7 3 4 11 6
22 22 22 20 20 19 19 17 18 18 18 16 4 10 2 2 3 7 3 4 2 5 8 4 5 6 5 3 4 2 3 2 4 8 3 6 6 5 3 2 5 9 8 7 4 2 5
21 21 20 20 19 18 16 15 16 15 15 16 5 19 1 1 3 5 3 2 3 4 1 4 8 9 5 3 2 2 3 2 3 2 4 4 3 4 3 2 6 5 6 4 6 6 6
20 20 19 18 17 18 14 13 14 14 13 15 4 16 7 1 5 2 4 3 4 4 2 5 4 6 5 5 2 2 2 4 2 3 2 1 1 3 2 4 4 2 5 3 6 4 13
19 19 18 17 16 16 13 11 13 12 12 12 3 14 13 3 5 15 20 18 9 2 4 4 4 1 1 3 3 2 2 3 0 3 4 2 4 3 7 5 7 6 6 5 5 8 3
Wind_Direction
3 10 5 0 3 4 2 1 359 358 356 355 351 346 345 342 336 333 329 323 319 317 314 313 315 327 5 35 250 257 359 163 163 170 167 157 92 36 321 249 284 233 296 42 25 57 93
1 2 3 4 4 4 1 359 358 358 356 354 350 344 342 339 334 331 326 321 317 313 309 305 306 316 88 243 250 251 225 168 173 174 177 177 151 163 220 252 238 258 294 2 23 80 45
4 4 2 2 1 0 359 358 359 357 355 352 347 343 341 338 333 330 325 319 315 311 302 296 284 193 214 231 169 99 196 193 191 184 143 190 157 144 159 282 264 268 311 51 344 8 57
2 1 2 359 358 357 356 358 357 355 351 349 347 344 341 335 331 328 323 320 315 309 297 282 221 147 245 258 234 272 203 217 212 203 206 180 173 90 150 285 207 37 53 34 331 340 353
1 359 356 357 355 355 355 355 355 352 350 348 347 342 338 334 331 326 323 323 320 325 311 187 141 165 266 300 206 223 205 200 197 215 229 216 153 179 150 192 24 16 224 161 308 354 62
357 359 354 359 353 352 351 350 350 350 349 347 345 342 338 333 330 325 325 324 314 349 92 118 255 340 266 229 188 202 201 206 184 193 244 193 171 146 51 156 223 208 209 234 251 196 93
354 354 354 357 355 350 349 347 347 346 347 346 343 340 338 332 331 326 329 351 18 358 224 198 195 242 311 255 203 201 190 193 219 148 204 216 145 220 210 183 211 180 164 198 240 212 107
353 351 350 352 358 351 348 346 344 344 345 344 342 339 335 330 327 316 310 213 217 112 291 228 239 243 266 302 331 254 192 152 179 215 211 350 228 227 263 223 176 198 197 229 299 219 108
351 349 347 346 353 353 347 345 344 343 343 342 340 337 333 329 322 307 245 240 261 341 278 268 201 210 232 153 212 250 146 175 179 215 233 206 237 230 188 150 150 188 183 198 198 101 77
351 349 347 345 349 353 348 345 344 342 341 340 338 336 333 330 325 333 256 349 347 215 20 273 189 248 175 167 307 222 200 148 208 204 230 233 245 168 164 212 146 197 201 221 175 116 217
350 349 346 345 346 349 350 346 343 341 339 337 335 333 328 330 297 255 235 309 327 112 356 234 171 225 144 144 208 207 177 133 195 225 126 242 154 160 134 218 138 239 344 190 86 161 112
348 348 347 344 344 346 349 346 343 340 338 334 332 327 322 308 272 261 333 330 102 51 260 271 152 180 141 171 241 31 151 131 178 205 221 245 202 165 203 184 113 345 81 9 54 59 348
346 345 347 346 343 344 346 346 344 341 337 335 325 318 302 262 236 195 336 25 60 162 307 206 187 151 183 166 205 156 229 231 177 189 240 273 262 224 157 113 37 36 45 352 358 1 225
348 347 351 346 344 344 347 346 345 343 339 338 321 314 281 253 257 275 340 57 186 239 248 290 155 92 178 164 221 178 168 225 251 151 153 210 279 191 198 192 178 169 138 152 147 235 223
356 349 349 347 343 348 349 349 347 345 341 338 325 315 268 260 228 212 77 109 210 222 332 343 338 112 243 217 176 174 206 216 216 185 207 193 260 265 156 169 142 119 214 144 72 152 117
354 352 347 345 350 350 352 352 350 349 344 341 325 317 253 175 166 143 83 228 232 246 353 15 342 120 258 238 173 165 190 204 210 186 170 219 257 264 239 157 351 141 179 78 182 223 250
351 351 347 347 350 350 352 354 353 353 349 347 330 357 249 158 141 56 175 232 284 278 8 6 330 291 187 257 189 221 242 254 194 205 192 178 169 252 124 187 200 150 125 48 99 153 156
351 354 351 346 348 351 351 354 355 358 356 1 342 19 156 160 91 176 216 221 302 304 316 266 233 199 178 232 248 215 216 215 184 188 161 201 197 243 200 226 193 188 192 150 135 224 242
348 351 352 348 348 350 351 353 354 359 2 339 342 272 192 168 146 240 281 278 250 283 278 282 295 125 125 65 315 219 278 285 224 189 176 174 210 236 298 342 3 197 196 185 38 86 200
348 350 350 352 348 348 350 351 352 354 352 322 2 0 327 22 69 120 332 280 267 271 273 243 233 8 43 8 139 317 337 309 344 185 205 127 139 190 223 215 187 227 192 201 146 129 192
347 347 350 349 348 350 351 352 353 354 350 161 143 272 298 326 330 330 230 274 288 292 271 329 302 168 207 248 27 10 331 333 335 358 55 122 173 159 211 201 189 191 220 273 186 205 180
347 346 348 350 349 352 352 354 357 359 7 2 60 37 348 289 301 347 342 322 357 299 299 331 37 340 61 85 121 246 1 12 289 333 351 354 241 148 198 208 75 306 308 294 233 111 57
345 346 344 347 347 353 351 355 0 4 16 19 345 335 107 286 332 25 332 309 329 294 52 70 344 112 53 340 267 231 212 231 229 245 324 271 127 85 249 322 34 332 233 245 263 204 147
343 344 342 344 346 348 350 353 359 5 11 352 302 326 60 284 4 335 330 349 354 333 323 346 49 86 273 304 297 316 232 248 272 273 195 270 100 110 202 47 241 241 222 222 222 262 200
339 338 341 341 344 344 347 348 355 358 359 350 309 348 63 308 325 328 336 339 348 340 5 39 340 327 255 36 27 11 350 7 270 256 291 153 113 72 144 177 284 317 290 230 210 287 191
338 338 339 338 341 341 340 342 350 355 355 356 2 354 73 113 249 307 297 352 12 337 350 340 321 311 62 78 61 104 238 238 313 319 37 89 80 109 61 86 231 234 294 269 126 254 297
339 338 335 336 338 340 340 340 347 353 354 350 340 14 33 108 255 349 8 4 357 7 353 330 337 347 32 70 89 161 263 264 251 307 345 2 5 159 139 197 293 250 311 30 95 232 312
335 336 335 336 337 341 341 338 346 351 354 355 350 23 29 294 279 288 357 345 7 35 60 292 22 358 13 45 81 257 175 254 248 258 60 135 35 246 94 110 276 231 1 60 196 292 88
338 337 336 336 334 339 339 334 342 348 354 359 326 17 2 158 244 297 291 278 249 162 136 0 169 303 133 48 6 347 339 342 293 274 306 285 187 214 173 214 279 303 190 144 151 116 52